TimeCDT,TemperatureF,Dew PointF,Humidity,Sea Level PressureIn,VisibilityMPH,Wind Direction,Wind SpeedMPH,Gust SpeedMPH,PrecipitationIn,Events,Conditions,WindDirDegrees,DateUTC
12:33 AM,21.2,15.8,80,30.40,10.0,Calm,Calm,-,N/A,,Clear,0,2012-10-12 05:33:00
12:53 AM,19.4,14.0,80,30.40,10.0,Calm,Calm,-,N/A,,Clear,0,2012-10-12 05:53:00
1:13 AM,19.4,15.8,86,30.40,10.0,Calm,Calm,-,N/A,,Clear,0,2012-10-12 06:13:00
1:33 AM,19.4,15.8,86,30.40,10.0,Calm,Calm,-,N/A,,Clear,0,2012-10-12 06:33:00
1:53 AM,19.4,15.8,86,30.40,10.0,Calm,Calm,-,N/A,,Clear,0,2012-10-12 06:53:00
2:13 AM,19.4,14.0,80,30.41,10.0,Calm,Calm,-,N/A,,Clear,0,2012-10-12 07:13:00
2:33 AM,19.4,15.8,86,30.41,10.0,Calm,Calm,-,N/A,,Clear,0,2012-10-12 07:33:00
2:53 AM,19.4,14.0,80,30.41,10.0,Calm,Calm,-,N/A,,Clear,0,2012-10-12 07:53:00
3:13 AM,17.6,12.2,79,30.41,10.0,Calm,Calm,-,N/A,,Clear,0,2012-10-12 08:13:00
3:53 AM,17.6,12.2,79,30.41,10.0,Calm,Calm,-,N/A,,Clear,0,2012-10-12 08:53:00
4:13 AM,17.6,12.2,79,30.41,10.0,Calm,Calm,-,N/A,,Clear,0,2012-10-12 09:13:00
4:33 AM,17.6,15.8,93,30.41,10.0,Calm,Calm,-,N/A,,Clear,0,2012-10-12 09:33:00
5:13 AM,17.6,14.0,86,30.42,10.0,Calm,Calm,-,N/A,,Clear,0,2012-10-12 10:13:00
5:33 AM,17.6,12.2,79,30.42,10.0,Calm,Calm,-,N/A,,Clear,0,2012-10-12 10:33:00
5:53 AM,17.6,14.0,86,30.42,10.0,Calm,Calm,-,N/A,,Clear,0,2012-10-12 10:53:00
6:13 AM,17.6,15.8,93,30.41,10.0,Calm,Calm,-,N/A,,Clear,0,2012-10-12 11:13:00
6:33 AM,17.6,15.8,93,30.41,10.0,Calm,Calm,-,N/A,,Clear,0,2012-10-12 11:33:00
6:53 AM,17.6,15.8,93,30.41,10.0,Calm,Calm,-,N/A,,Clear,0,2012-10-12 11:53:00
7:33 AM,17.6,14.0,86,30.42,10.0,Calm,Calm,-,N/A,,Clear,0,2012-10-12 12:33:00
7:53 AM,17.6,14.0,86,30.42,10.0,Calm,Calm,-,N/A,,Clear,0,2012-10-12 12:53:00
8:13 AM,17.6,15.8,93,30.42,10.0,Calm,Calm,-,N/A,,Clear,0,2012-10-12 13:13:00
8:33 AM,21.2,19.4,93,30.42,10.0,Calm,Calm,-,N/A,,Clear,0,2012-10-12 13:33:00
9:13 AM,30.2,21.2,69,30.42,10.0,Calm,Calm,-,N/A,,Clear,0,2012-10-12 14:13:00
9:33 AM,33.8,23.0,65,30.42,10.0,ESE,4.6,-,N/A,,Clear,110,2012-10-12 14:33:00
9:53 AM,35.6,23.0,60,30.42,10.0,ESE,5.8,-,N/A,,Clear,120,2012-10-12 14:53:00
10:13 AM,37.4,23.0,56,30.41,10.0,SE,8.1,-,N/A,,Clear,140,2012-10-12 15:13:00
10:33 AM,39.2,23.0,52,30.40,10.0,ESE,8.1,-,N/A,,Clear,120,2012-10-12 15:33:00
10:53 AM,42.8,21.2,42,30.40,10.0,ESE,9.2,-,N/A,,Clear,120,2012-10-12 15:53:00
11:13 AM,42.8,21.2,42,30.39,10.0,SSE,11.5,16.1,N/A,,Clear,160,2012-10-12 16:13:00
11:33 AM,42.8,21.2,42,30.38,10.0,SSE,12.7,16.1,N/A,,Clear,160,2012-10-12 16:33:00
12:13 PM,44.6,17.6,34,30.37,10.0,SSE,10.4,17.3,N/A,,Clear,150,2012-10-12 17:13:00
12:33 PM,46.4,19.4,34,30.36,10.0,SSE,10.4,16.1,N/A,,Clear,160,2012-10-12 17:33:00
12:53 PM,46.4,17.6,32,30.34,10.0,SE,10.4,17.3,N/A,,Clear,140,2012-10-12 17:53:00
1:33 PM,48.2,15.8,27,30.32,10.0,SE,10.4,18.4,N/A,,Clear,140,2012-10-12 18:33:00
2:53 PM,50.0,12.2,22,30.27,10.0,South,8.1,19.6,N/A,,Clear,180,2012-10-12 19:53:00
3:33 PM,51.8,12.2,21,30.25,10.0,SSE,12.7,20.7,N/A,,Clear,150,2012-10-12 20:33:00
3:53 PM,51.8,12.2,21,30.25,10.0,SSE,16.1,20.7,N/A,,Clear,160,2012-10-12 20:53:00
4:13 PM,51.8,10.4,19,30.24,10.0,South,13.8,19.6,N/A,,Clear,180,2012-10-12 21:13:00
4:33 PM,51.8,10.4,19,30.22,10.0,SSE,13.8,20.7,N/A,,Clear,150,2012-10-12 21:33:00
4:53 PM,50.0,10.4,20,30.21,10.0,SE,12.7,19.6,N/A,,Clear,140,2012-10-12 21:53:00
5:13 PM,50.0,10.4,20,30.20,10.0,SSE,13.8,-,N/A,,Clear,160,2012-10-12 22:13:00
5:33 PM,50.0,10.4,20,30.19,10.0,SSE,15.0,19.6,N/A,,Clear,160,2012-10-12 22:33:00
5:53 PM,48.2,10.4,22,30.18,10.0,SSE,9.2,17.3,N/A,,Clear,160,2012-10-12 22:53:00
6:13 PM,48.2,10.4,22,30.16,10.0,SSE,8.1,-,N/A,,Clear,150,2012-10-12 23:13:00
6:33 PM,46.4,10.4,23,30.15,10.0,SE,8.1,-,N/A,,Clear,140,2012-10-12 23:33:00
6:53 PM,46.4,10.4,23,30.14,10.0,SE,6.9,-,N/A,,Clear,140,2012-10-12 23:53:00
7:13 PM,44.6,10.4,25,30.12,10.0,SE,6.9,-,N/A,,Clear,130,2012-10-13 00:13:00
7:53 PM,42.8,14.0,31,30.10,10.0,SE,6.9,-,N/A,,Clear,130,2012-10-13 00:53:00
8:13 PM,44.6,14.0,29,30.09,10.0,SE,6.9,-,N/A,,Scattered Clouds,140,2012-10-13 01:13:00
8:33 PM,44.6,15.8,31,30.08,10.0,SE,6.9,-,N/A,,Unknown,130,2012-10-13 01:33:00
8:53 PM,46.4,15.8,29,30.08,10.0,SE,6.9,-,N/A,,Unknown,130,2012-10-13 01:53:00
9:13 PM,46.4,15.8,29,30.08,10.0,SE,6.9,-,N/A,,Unknown,140,2012-10-13 02:13:00
9:33 PM,46.4,15.8,29,30.07,10.0,SE,9.2,-,N/A,,Unknown,140,2012-10-13 02:33:00
10:13 PM,48.2,15.8,27,30.05,10.0,SE,10.4,-,N/A,,Unknown,140,2012-10-13 03:13:00
10:53 PM,48.2,15.8,27,30.03,10.0,SSE,13.8,24.2,N/A,,Unknown,150,2012-10-13 03:53:00
11:13 PM,48.2,15.8,27,30.02,10.0,SSE,15.0,19.6,N/A,,Unknown,150,2012-10-13 04:13:00
11:33 PM,48.2,15.8,27,30.01,10.0,SE,13.8,19.6,N/A,,Unknown,140,2012-10-13 04:33:00